Location: Franzen
(48.6167°N, 15.3833°E)
Time: 20:46:22
(UTC+00:00)

Cosmos 1709 Rocket - Pass Details

Date: 04 August 2021
Orbit: 947 x 1002 km, 82.9° (Epoch: 22 September)

Event Time Altitude Azimuth Distance (km) Brightness Sun altitude
Exits shadow 21:16:43 17° 100° (E) 2,316 5.6 -20.1°
Maximum altitude 21:18:32 19° 79° (E) 2,201 5.7 -20.3°
Drops below altitude 10° 21:22:44 10° 37° (NE) 2,785 6.7 -20.6°
Sets 21:26:03 0° 21° (NNE) 3,741 7.7 -20.8°
